User: anonymous   Login
Location: Unspecified
(0.0000°N, 0.0000°E)
Time: 08:29:53
(UTC+00:00)
Language:

ASTRA 1KR - Orbit

View from above orbital plane
View from above orbital plane
View from above satellite
View from above satellite

Ground track
Ground track

The orbit data is extracted from the following two-line orbital elements,

1 29055U 06012A   16237.88243928  .00000095  00000-0  00000+0 0  9996
2 29055   0.0946 277.6371 0004280 275.9433 116.8758  1.00273624 37812
Epoch (UTC): 24 August 2016 21:10:42
Eccentricity: 0.0004280
inclination: 0.0946°
perigee height: 35767 km
apogee height: 35804 km
right ascension of ascending node: 277.6371°
argument of perigee: 275.9433°
revolutions per day: 1.00273624
mean anomaly at epoch: 116.8758°
orbit number at epoch: 3781

The dashed part of the orbit path shows where the satellite is in the earth's shadow,  

DLR